Regional Weather Roundup
Issued by NWS

Home | Current Version | Previous Version | Text Only | Print | Product List | Glossary Off
Versions: 1 2 3 4 5 6 7 8 9 10 11 12 13 14 15 16 17 18 19 20 21 22 23 24 25 26 27 28 29

000
ASUS45 KGTF 181810
RWRMT
MONTANA HOURLY WEATHER ROUNDUP
NATIONAL WEATHER SERVICE GREAT FALLS MT
1200 PM MDT SAT APR 18 2015

NOTE: "FAIR" INDICATES FEW OR NO CLOUDS BELOW 12000 FEET WITH NO
SIGNIFICANT WEATHER AND/OR OBSTRUCTIONS TO VISIBILITY.

MTZ001>007-043-181900-
WEST OF THE DIVIDE

CITY           SKY/WX    TMP DP  RH WIND       PRES   REMARKS
KALISPELL      CLEAR     57  28  33 NE18      30.20R
MISSOULA       SUNNY     60  34  37 NW9       30.17F
BUTTE          MOSUNNY   53  22  29 NW13      30.14F
DEER LODGE       N/A     55  27  33 NW18G29   30.18S
EUREKA           N/A     55  23  28 NW6G16    30.22S
HAMILTON         N/A     59  23  25 NW8       30.15F
LIBBY            N/A     59  21  23 NE3       30.20F
$$

MTZ008-052>055-181900-
SOUTHWEST MONTANA

CITY           SKY/WX    TMP DP  RH WIND       PRES   REMARKS
BOZEMAN        SUNNY     56  31  38 N7        30.12F
DILLON         SUNNY     57  23  26 NE5       30.12F
$$

MTZ009-010-012-014-046-048-049-054-181900-
EAST SLOPES AND CENTRAL MONTANA

CITY           SKY/WX    TMP DP  RH WIND       PRES   REMARKS
CUT BANK       CLOUDY    38  32  79 NW15      30.30R WCI  29
GREAT FALLS    LGT SNOW  33  32  96 N13       30.29R VSB 3/4 WCI  24
MALMSTROM AFB  FLURRIES  35  35  99 N13G22    30.29R WCI  26
HELENA         CLOUDY    41  29  62 N23G33    30.25R
$$

MTZ011-013-016-021-045-047-050-051-181900-
NORTH CENTRAL MONTANA

CITY           SKY/WX    TMP DP  RH WIND       PRES   REMARKS
HAVRE          LGT RAIN  43  33  68 NW15G26   30.23R
LEWISTOWN      CLOUDY    43  33  68 NW21G29   30.17R
FORT BENTON      N/A     41  34  75 NW10      30.29R
$$

MTZ017>020-022>042-056>058-061-062-181900-
EASTERN PLAINS

CITY           SKY/WX    TMP DP  RH WIND       PRES   REMARKS
BAKER          MOSUNNY   65  42  43 S13G18    29.95F
BILLINGS       MOSUNNY   65  26  23 N16G25    30.02S
GLASGOW        MOSUNNY   57  35  43 NW25G38   30.03R
JORDAN           N/A     57  38  48 N28G38    30.01R
LIVINGSTON     CLOUDY    57  28  33 NW12G21   30.07F
MILES CITY     SUNNY     65  38  36 VRB7      29.95S
SIDNEY         SUNNY     70  37  30 S15G24    29.90F
WOLF POINT     MOSUNNY   61  38  42 N23G32    29.95R
BIG TIMBER       N/A     55  30  38 N6        30.07S
FORSYTH          N/A     64  32  29 NW16G23   29.96F
PLENTYWOOD       N/A     55  34  44 NW22G30   29.93R
POPLAR           N/A     59  36  41 N20       29.93R
$$

REGIONAL REPORTS...DAKOTAS

CITY           SKY/WX    TMP DP  RH WIND       PRES   REMARKS
WILLISTON      SUNNY     70  37  29 SW14G28   29.89F
MINOT          SUNNY     68  25  19 S14       29.92F
DICKINSON      SUNNY     67  33  28 SW13G22   29.92F
BEACH          FAIR      66  34  30 W7G18     29.94F
CROSBY         FAIR      68  36  30 SW10G18   29.89S
WATFORD CITY   FAIR      68  32  26 SW13G18   29.89F
BISMARCK       CLOUDY    55  30  38 VRB3      29.98F
GRAND FORKS    PTSUNNY   64  29  26 SE7       30.02F
FARGO          MOSUNNY   67  28  23 SE7       30.00F
BUFFALO SD       N/A     59  39  47 SE7       29.90F
RAPID CITY     LGT RAIN  48  44  86 N14       29.95F
$$

REGIONAL REPORTS...WYOMING/IDAHO/WASHINGTON

CITY           SKY/WX    TMP DP  RH WIND       PRES   REMARKS
GILLETTE       PTSUNNY   53  40  61 CALM      29.96F
SHERIDAN       MOSUNNY   62  34  35 NW18G28   29.97F
BUFFALO WY     MOSUNNY   60  30  32 N22       29.98F
CODY           SUNNY     57  32  38 N21G26    30.03F
YELLOWSTONE LA   N/A     47  19  33 VRB3      30.13F
IDAHO FALLS    SUNNY     62  27  26 NE10      30.07F
SALMON         SUNNY     57  28  33 NW8       30.13F
BOISE          SUNNY     65  36  34 NW25      30.11S
SPOKANE        MOSUNNY   59  21  23 N15       30.25R
$$

REGIONAL REPORTS...ALBERTA

CITY           SKY/WX    TMP DP  RH WIND       PRES   REMARKS
EDMONTON       CLOUDY    50  23  34 NW20G31   30.20S
CALGARY        PTSUNNY   45  19  36 N18G24    30.28S
LETHBRIDGE     PTSUNNY   45  30  57 NW20G26   30.30S
MEDICINE HAT   PTSUNNY   50  27  40 NW16G29   30.22S
$$

REGIONAL REPORTS...SASKATCHEWAN

CITY           SKY/WX    TMP DP  RH WIND       PRES   REMARKS
SWIFT CURRENT  PTSUNNY   46  32  57 NW22G31   30.07R
REGINA         PTSUNNY   57  36  44 NW23G31   29.96S
SASKATOON      PTSUNNY   48  32  53 NW22G32   30.00R
$$



USA.gov is the U.S. government's official web portal to all federal, state and local government web resources and services.